DECAYED

STARLINK-1571, 46081 (Decayed)

Orbit data source: Space-Track

STARLINK-1571, 46081 was a payload satellite owned by SpaceX/Seattle (US) in LEO that was launched on Fri, 07 Aug 2020 UTC via an FALCON 9 launch vehicle from the Air Force Eastern Test Range (AFETR). Payload-class satellites include a variety of spacecraft equipped with specific instruments for various scientific and technological missions. These include communications satellites like Starlink; space stations such as the ISS; scientific satellites like the Hubble; Earth observation satellites from companies like Planet Labs, Umbra, and HawkEye 360; GPS; miniature CubeSats for education and research; and military/defense satellites.

Not visible in the next 10 days
Identifier
46081, 2020-055BG
Orbit
Decayed
Country
Flag of USUS
Related business
Manufacturer
SpaceX/Seattle
Mission
Decayed Commercial Communications
Bus & Motor
STARLINK, Unknown motor
Mass
260 kg wet, ~248 kg dry
Launch date (UTC)
2020-08-07 (6 years ago)
Launch vehicle
FALCON 9
Launch site
Air Force Eastern Test Range (AFETR)
Object type
Payload
Rocket body
Debris
Shape & HBR
Box + 1 Pan, 10.1 m
Radar Cross Section
13.562 m², Large (>1 m²)

Expand to show TLE details & history
Last TLE update: 2 years ago

TLE from 2 years ago
0 STARLINK-1571
1 46081U 20055BG  25053.02976359  .02857942  12395-4  10000-3 0  9992
2 46081  53.0452 345.1882 0013991 156.9575 309.6254 16.43085236251670
Epoch: 2025-02-22T00:42Z
TLE epoch observation values (Epoch: 2025-02-22T00:42:51.574Z)
Latitude
50.18461°
Longitude
-61.51005°
Altitude
157.585 km
Speed
7.821 km/s
True Right ascension
06h 45m 32s
True Declination
49° 59' 59"
Sunlit
Object was in full shadow at epoch
Visualization orbit readout
Latitude
Unknown
Longitude
Unknown
Altitude
Unknown
Speed
Unknown
Apparent Right ascension
Unknown
Apparent Declination
Unknown
Sunlit
N/A
Visualization observer readout
Local Sidereal Time
15:37:10
Azimuth
Unknown
Elevation
Unknown
Doppler factor
Unknown
Orbital elements
Apogee altitude
167.041 km
Perigee altitude
148.752 km
Semi-major axis
6,536.033 km
Eccentricity
0.0014
Inclination
53.0452°
RAAN
345.1882°
Arg. of periapsis
156.9575°
True anomaly
309.50177°
Mean anomaly
309.6254°
Eccentric anomaly
309.5636°
Mean motion
4.10745 °/min
Orbital period
87.65 mins
BSTAR
0.0001
Loading maneuver chart data...
Computing Atmospheric mass density...
Loading historical data...
Loading historical data...
Loading historical data...
Loading historical data...
Loading historical data...
Loading historical data...
Loading historical data...

Documentation

Showing up to 5 results
|